• Join FlightAware (Why Join?)
  • Login
  • US Flag 
10:46AM EST


 

Airport Tracker/Info


-or-


 

Live Flight TrackerFlight Track Log ✈ JIA2424 ✈ 23-Apr-2012 ✈ KSDF - KCLT

Flight Track Log - Related Links

Times and Time Zones

All times are in EDT time to prevent confusion due to time zone crossing. See the JIA2424 flight status page for this flight to view local times or setup timezone preferences in your user account.

Time Position Orientation Groundspeed Altitude Reporting Facility
EDT Latitude Longitude Course Direction KTS MPH feet Rate Location/Type
09:37AM 38.1622 -85.7112 335° Northwest  Level FlightAware Approximate
09:38AM 38.2111 -85.7403 27° Northeast 167 192 2,300  Level FAA TRACON SMA TRACON (SMA)
09:38AM 38.2386 -85.7222 113° Southeast 201 231 4,400 2,100 Climbing FAA TRACON SMA TRACON (SMA)
09:39AM 38.2217 -85.6717 124° Southeast 271 312 5,100 2,325 Climbing FAA TRACON SMA TRACON (SMA)
09:40AM 38.1900 -85.6131 124° Southeast 291 335 7,500 3,185 Climbing FAA TRACON SMA TRACON (SMA)
09:40AM 38.1578 -85.5533 125° Southeast 297 342 9,400 2,667 Climbing FAA TRACON SMA TRACON (SMA)
09:41AM 38.1278 -85.4981 121° Southeast 310 357 11,100 2,658 Climbing FAA TRACON SMA TRACON (SMA)
09:42AM 38.0964 -85.4322 108° East 317 365 12,900 2,582 Climbing FAA TRACON SMA TRACON (SMA)
09:42AM 38.0775 -85.3589 99° East 317 365 14,500 2,250 Climbing FAA TRACON SMA TRACON (SMA)
09:43AM 38.0686 -85.2897 98° East 323 372 15,900 2,148 Climbing FAA TRACON SMA TRACON (SMA)
09:44AM 38.0597 -85.2100 99° East 331 381 17,400 2,074 Climbing FAA TRACON SMA TRACON (SMA)
09:44AM 38.0500 -85.1281 99° East 341 392 18,700 1,899 Climbing FAA TRACON SMA TRACON (SMA)
09:45AM 38.0408 -85.0542 99° East 346 398 19,900 1,899 Climbing FAA TRACON SMA TRACON (SMA)
09:46AM 38.0297 -84.9700 134° Southeast 351 404 21,200 1,807 Climbing FAA TRACON SMA TRACON (SMA)
09:46AM 37.9808 -84.9061 158° South 376 433 22,400 1,333 Climbing FAA TRACON SMA TRACON (SMA)
09:47AM 37.9192 -84.8742 158° South 388 447 23,000 769 Climbing FAA TRACON SMA TRACON (SMA)
09:48AM 37.8483 -84.8378 159° South 397 457 23,400 1,139 Climbing FAA TRACON SMA TRACON (SMA)
09:48AM 37.7758 -84.8017 158° South 400 460 24,500 1,443 Climbing FAA TRACON SMA TRACON (SMA)
09:49AM 37.7125 -84.7692 158° South 402 463 25,300 1,125 Climbing FAA TRACON SMA TRACON (SMA)
09:50AM 37.6406 -84.7322 165° South 403 464 26,000 457 Climbing FAA TRACON SMA TRACON (SMA)
09:50AM 37.5431 -84.6992 157° South 407 468 26,000  Level Indianapolis Center
09:51AM 37.4414 -84.6453 160° South 412 474 26,000  Level Indianapolis Center
09:52AM 37.3311 -84.5939 158° South 406 467 26,000  Level Indianapolis Center
09:53AM 37.2231 -84.5403 158° South 411 473 26,000 350 Level Indianapolis Center
09:54AM 37.1172 -84.4869 158° South 411 473 26,700 500 Climbing Indianapolis Center
09:55AM 37.0092 -84.4336 158° South 411 473 27,000 104 Climbing Indianapolis Center
09:57AM 36.8169 -84.3369 158° South 433 498 27,000  Level Atlanta Center
09:58AM 36.7108 -84.2847 159° South 428 493 27,000  Level Atlanta Center
09:59AM 36.5961 -84.2300 158° South 417 480 27,000  Level Atlanta Center
10:00AM 36.4919 -84.1781 159° South 410 472 27,000  Level Atlanta Center
10:01AM 36.3900 -84.1289 159° South 405 466 27,000  Level Atlanta Center
10:02AM 36.2878 -84.0800 160° South 400 460 27,000  Level Atlanta Center
10:03AM 36.1814 -84.0311 159° South 400 460 27,000  Level Atlanta Center
10:04AM 36.0792 -83.9822 158° South 400 460 27,000  Level Atlanta Center
10:05AM 35.9769 -83.9308 134° Southeast 400 460 27,000  Level Atlanta Center
10:06AM 35.9017 -83.8361 90° East 387 445 27,000  Level Atlanta Center
10:07AM 35.9014 -83.7056 91° East 337 388 27,000  Level Atlanta Center
10:08AM 35.8989 -83.5772 91° East 348 400 27,000  Level Atlanta Center
10:09AM 35.8961 -83.4492 90° East 364 419 27,000  Level Atlanta Center
10:10AM 35.8956 -83.3183 93° East 370 426 27,000 -50 Level Atlanta Center
10:11AM 35.8906 -83.1903 92° East 378 435 26,900 -550 Descending Atlanta Center
10:12AM 35.8875 -83.0622 92° East 378 435 25,900 -1,000 Descending Atlanta Center
10:13AM 35.8844 -82.9392 92° East 366 421 24,900 -950 Descending Atlanta Center
10:14AM 35.8811 -82.8189 92° East 361 415 24,000 -450 Descending Atlanta Center
10:15AM 35.8778 -82.6958 91° East 356 410 24,000 -250 Level Atlanta Center
10:16AM 35.8764 -82.5781 93° East 350 403 23,500 -1,150 Descending Atlanta Center
10:17AM 35.8708 -82.4603 91° East 345 397 21,700 -1,600 Descending Atlanta Center
10:18AM 35.8694 -82.3475 94° East 338 389 20,300 -850 Descending Atlanta Center
10:19AM 35.8636 -82.2322 116° Southeast 332 382 20,000 -700 Descending Atlanta Center
10:20AM 35.8244 -82.1333 114° Southeast 327 376 18,900 -1,350 Descending Atlanta Center
10:21AM 35.7875 -82.0317 117° Southeast 327 376 17,300 -1,500 Descending Atlanta Center
10:22AM 35.7461 -81.9303 117° Southeast 327 376 15,900 -1,500 Descending Atlanta Center
10:23AM 35.7067 -81.8342 115° Southeast 316 364 14,300 -1,550 Descending Atlanta Center
10:24AM 35.6675 -81.7331 118° Southeast 321 369 12,800 -1,131 Descending Atlanta Center
10:25AM 35.6258 -81.6372 121° Southeast 320 368 12,000 -400 Descending Atlanta Center
10:26AM 35.5847 -81.5542 129° Southeast 321 369 12,000 -492 Level Atlanta Center
10:27AM 35.5178 -81.4514 131° Southeast 315 362 11,000 -1,200 Descending Atlanta Center
10:28AM 35.4725 -81.3867 129° Southeast 322 371 9,600 -1,034 Descending Atlanta Center
10:29AM 35.4186 -81.3042 131° Southeast 322 371 9,000 -300 Descending Atlanta Center
10:30AM 35.3606 -81.2222 129° Southeast 322 371 9,000  Level Atlanta Center
10:31AM 35.3086 -81.1425 127° Southeast 316 364 9,000  Level Atlanta Center
10:32AM 35.2783 -81.0939 158° South 274 315 9,000 -152 Level FAA TRACON SMA TRACON (SMA)
10:33AM 35.2297 -81.0703 176° South 280 322 8,800 -900 Descending FAA TRACON SMA TRACON (SMA)
10:33AM 35.1803 -81.0656 176° South 275 316 7,800 -1,575 Descending FAA TRACON SMA TRACON (SMA)
10:34AM 35.1281 -81.0611 176° South 277 319 6,700 -1,443 Descending FAA TRACON SMA TRACON (SMA)
10:35AM 35.0778 -81.0572 175° South 275 316 5,900 -1,063 Descending FAA TRACON SMA TRACON (SMA)
10:35AM 35.0353 -81.0531 176° South 254 292 5,300 -667 Descending FAA TRACON SMA TRACON (SMA)
10:36AM 34.9881 -81.0486 146° Southeast 246 283 5,000 -222 Descending FAA TRACON SMA TRACON (SMA)
10:37AM 34.9511 -81.0186 90° East 248 285 5,000 -150 Level FAA TRACON SMA TRACON (SMA)
10:37AM 34.9508 -80.9750 35° Northeast 213 245 4,800 -600 Descending FAA TRACON SMA TRACON (SMA)
10:38AM 34.9806 -80.9494 North 174 200 4,200 -600 Descending FAA TRACON SMA TRACON (SMA)
10:39AM 35.0119 -80.9472 352° North 164 189 4,000 -150 Descending FAA TRACON SMA TRACON (SMA)
10:39AM 35.0364 -80.9514 354° North 162 186 4,000 -380 Level FAA TRACON SMA TRACON (SMA)
10:40AM 35.0664 -80.9553 354° North 158 182 3,500 -769 Descending FAA TRACON SMA TRACON (SMA)